Terminal Aerodrome Forecast
Issued by NWS Milwaukee/Sullivan, WI

Home | Current Version | Previous Version | Text Only | Print | Product List | Glossary On
Versions: 1 2 3 4 5 6 7 8 9 10 11 12 13 14 15 16 17 18 19 20 21 22 23 24 25 26 27 28 29 30 31 32 33 34 35 36 37 38 39 40
000
FTUS43 KMKX 262333
TAFMKE
TAF
KMKE 262333Z 2700/2806 VRB03KT P6SM SCT030 BKN200
     FM271000 18007KT 3SM BR OVC003
     FM271200 18007KT 3SM -RA BR OVC008
     FM271500 21011G20KT 3SM -RA BR OVC015
     FM271800 24014G24KT P6SM OVC010
     FM280000 29012KT P6SM OVC035=

USA.gov is the U.S. government's official web portal to all federal, state and local government web resources and services.